Погода в Борисоглебске

Погода в Борисоглебске : погода сейчас, прогноз погоды и архив. Всё, что Вы хотите узнать о погоде в Борисоглебске!

Хотите узнать прогноз погоды в Борисоглебске? Тогда Вам сюда: Погода в Борисоглебске

Поиск расширенной информации на нашем сайте:

Другие новости

Новости СМИ2

Главная страница сайта

Новости сайта

03.07.2017

Напоминаем, что на нашем специализированном сайте Метеоцентр.Азия вы можете получить высокодетализированные автоматические прогнозы погоды по пунктам России, СНГ и мира в авиационном формате (включающие направление и скорость ветра, видимость, явления погоды, количество и форму облачности, нижнюю и верхнюю границу облачности).


Погода в Борисоглебске - сегодня

Время (UTC), дата Ветер
(°,м/с) 
Видим.   Явления Облачность Т
(°С)
Тd
(°С)
f(%) Тe
(°С)
Pmin
(гПа)
dP
(гПа)
Po
(мм)
O2
(г/м3)
Тmin Tmax R s Состояние
почвы
06 15.08.17 230 (ЮЗ) 20000 м    ясно 
+24.9 +10.4 40 +26  1019.3  0.5  755  277           
09 15.08.17 080 (В) 20000 м    3/3 1000 м 
[Cu hum]
+29.6 +11.5 33 +33  1018.9  -0.3  755  272           
12 15.08.17 070 (В) 20000 м    6/6 1000 м 
[Cu hum]
+31.4 +11.3 29 +34  1018.2  -0.6  755  271           
15 15.08.17 030 (СВ) 20000 м    4/4 1000 м 
[Cu hum]
+30.4 +11.8 32 +34  1017.9  -0.3  754  271    +31.9       
18 15.08.17 360 (С) 10 км  {ливн. осадки}  8/4 600 м кучево-дожд., средняя 
[Cb cap|Ac trans]
+23.8 +15.3 59 +33  1019.8  1.6  756  277           
21 15.08.17 040 (СВ) 10 км  {ливн. осадки}  9/9 600 м кучево-дожд. 
[Cb cap]
+21.2 +16.8 76 +33  1020.5  0.6  756  279           
00 16.08.17 030 (СВ) 10 км  {ливн. осадки}  9/9 600 м 
[Sc]
+19.3 +16.1 82 +30  1020.8  0.2  756  281           
03 16.08.17 040 (СВ) 10 км    8/0 средняя 
[Ac trans]
+17.4 +14.8 85 +27  1021.9  757  284  +17.4    0.3     
06 16.08.17 200 (Ю) 20000 м    8/0 средняя 
[Ac trans]
+21.6 +14.9 66 +30  1022.2  0.5  757  280           
09 16.08.17 050 (СВ) 20000 м    4/0 средняя 
[Ac trans]
+29.1 +11 33 +31  1021.4  -0.5  757  274           
12 16.08.17 080 (В) 20000 м    8/4 1000 м кучево-дожд., средняя 
[Cb calv|Ac trans]
+30.7 +11.2 30 +33  1021.2  -0.1  757  272           
15 16.08.17 070 (В) 20000 м    3/0 средняя 
[Ac trans]
+29.1 +11.2 33 +32  1021.1  -0.2  757  274    +31       
18 16.08.17 300 (СЗ) 20000 м    ясно 
+22.3 +13.9 59 +29  1022.1  0.7  757  279           
21 16.08.17 260 (З) 10 км    ясно 
+18.2 +13.2 73 +25  1022.8  0.5  758  284           
00 17.08.17 320 (СЗ) 10 км    ясно 
+15.8 +11.1 74 +19  1023.4  0.5  758  287           
03 17.08.17 070 (В) 10 км    3/0 средняя 
[Ac trans]
+15.3 +12 81 +20  1023.8  0.4  758  287  +15.1         
06 17.08.17 040 (СВ) 20000 м    ясно 
+23.8 +12.5 49 +28  1023.6  0.1  758  279           
09 17.08.17 020 (С) 20000 м    ясно 
+29.4 +12 34 +33  1023.5  0.2  759  274           
12 17.08.17 060 (СВ) 20000 м    6/6 1000 м 
[Cu hum]
+31 +9.7 27 +32  1021.9  -1.5  757  272           
15 17.08.17 050 (СВ) 20000 м    ясно 
+30 +10.2 29 +31  1021.3  -0.7  757  273    +31.2       
18 17.08.17 040 (СВ) 10 км    ясно 
+23.9 +11.1 45 +26  1022.4  0.8  758  279           
21 17.08.17 050 (СВ) 10 км    ясно 
+18.3 +11.5 65 +23  1023.1  0.5  758  284           
00 18.08.17 060 (СВ) 10 км    3/0 средняя 
[Ac trans]
+16.2 +11.5 74 +21  1023.4  0.2  758  286           
03 18.08.17 070 (В) 10 км    6/0 средняя 
[Ac trans]
+15.8 +12 78 +21  1024.2  0.8  759  287  +15.4         
06 18.08.17 080 (В) 20000 м    ясно 
+24.3 +11.7 45 +28  1023.9  759  279           
Время (UTC), дата Ветер
(°,м/с) 
Видим.   Явления Облачность Т
(°С)
Тd
(°С)
f(%) Тe
(°С)
Pmin
(гПа)
dP
(гПа)
Po
(мм)
O2
(г/м3)
Тmin Tmax R s Состояние
почвы

Для получения пояснительной информации подведите курсор к названию столбца.

ПОГОДА в Борисоглебске - архив

Всё, что Вы хотите узнать о погоде в Борисоглебске - удобно и подробно!

Выберите нужную дату (начиная с 1 января 2015* года) и нажмите кнопку "Найти".
Будут отображены архивные сводки погоды по пункту Борисоглебск, начиная с указанной даты.


Отображать данные в формате CSV (для использования в таблицах Excel)


Внимание! Наш архив погоды предназначен исключительно для личного некоммерческого использования в познавательных целях. Если Вам необходимы официальные справки о состоянии погоды (для производственных, юридических, коммерческих и т.п. целей), обращайтесь в органы Росгидромета.

*Примечание: данная дата относится к архиву по метеостанциям СССР (Россия, СНГ, Балтия).
Архив по метеостанциям Зарубежной Европы и Азии (кроме Китая) хранится 10 дней, по другим регионам земного шара (Китай, Африка, Америка, Австралия, Океания) - 1 день.

Борисоглебск - район местоположения метеостанции


Название, широта, долгота, высота метеостанции:
Борисоглебск 51.4°ш. 42.1°д. 106 м над ур. моря [Российская Федерация]

Дополнительная информация

В oтличие oт бoльшинства пoгoдных сайтoв мы публикуем пoдрoбную метеoинфoрмацию в детальнoм прoфессиoнальнoм фoрмате.

Характеристики температуры и влажнoсти вoздуха измеряются на высoте 2 м в тени вдали oт зданий и деревьев.
Скoрoсть ветра измеряется на высoте 10 м (на урoвне рoста челoвека скoрoсть ветра ниже в 1.5-2 раза). Если метеoстанция нахoдится в гoрoде или в лесу, тo скoрoсть ветра занижена на 2-4 м/с пo сравнению с oткрытым местoм. Скoрoсть ветра над акватoриями крупных рек и oзёр, а также на вершинах хoлмoв на 2-5 м/с выше, чем в oбычных услoвиях.
Атмoсфернoе давление в разных тoчках местнoсти мoжет значительнo oтличаться oт давления на метеoстанции, в зависимoсти oт услoвий рельефа (при пoдъёме на 10 м давление пoнижается примернo на 1 мм рт.ст.).